Starlink 33748

operational
NORAD ID: 63383 Int'l Des: 2025-063 Owner: SPXS Country: US Constellation: starlink
LEOCIRCULAR

Starlink 33748について

説明を読み込み中...

リアルタイム位置

3D地球を読み込み中...

次回通過

高度履歴

Altitude vs Time

uPlot chart will show altitude changes over time

軌道要素

1 63383U 25063W 25258.41379141 .00070059 00000-0 23515-2 0 9990
2 63383 53.1576 157.2692 0001661 94.8213 265.2978 15.30252950 27779
Epoch: Sep 15, 2025 • Age: 18 hours

現在のステータス

高度 479.1 km
速度 7.63 km/s
衛星直下点 48.21°N, 132.87°W
打ち上げ日 Mar 26, 2025
運用期間 0.4 years
タイプ internet

技術仕様

分類 Payload
質量 575.00 kg
乾燥質量 530.00 kg
総質量 575.00 kg
長さ 0.30 m
直径 4.10 m
スパン 29.00 m
形状 Box + pan
製造者 SPXS
バスタイプ Starlink V2MO
フェーズステータス In Orbit
所有者/国 SPXS/US

大規模コンステレーション

Loading constellations...